Вернуться в каталог

THOR ABLESTAR DEB

АктивенPO
NORAD 1608·DEBRIS·🇺🇸 United States

Запущен Dec 13, 1964 с Vandenberg Space Force Base

Loading…

Ближайшие Пролёты (ближайшие 24 часа)

TLE

СвежийSource: Space-Track

Эпоха: Sep 14, 2026, 05:19 UTC

1 01608U 64083H   26257.22213265  .00000661  00000-0  56138-3 0  9990
2 01608  89.7603  63.9737 0015965 194.9056 340.1311 13.86329923 87256

Отслеживайте THOR ABLESTAR DEB в реальном времени с AllMySat

Download on the App Store